Regional Weather Roundup
Issued by NWS

Home | Current Version | Previous Version | Text Only | Print | Product List | Glossary On
Versions: 1 2 3 4 5 6 7 8 9 10 11 12 13 14 15 16 17 18 19 20 21 22 23 24 25 26 27 28 29 30 31 32 33 34 35 36 37 38 39 40 41 42 43 44 45 46 47 48 49 50
000
ASUS43 KDMX 262106
RWRIA

WEATHER ROUNDUP FOR IOWA
NATIONAL WEATHER SERVICE DES MOINES IA
400 PM CDT WED APR 26 2017

NOTE: "FAIR" INDICATES FEW OR NO CLOUDS BELOW 12,000 FEET WITH NO
SIGNIFICANT WEATHER AND/OR OBSTRUCTIONS TO VISIBILITY.

* - THESE STATIONS ARE NOT NWS STATIONS...THUS NOT UNDER NWS
QUALITY CONTROL.  THEY ALSO DO NOT REPORT WEATHER SUCH
AS PRECIPITATION OR FOG.

IAZ001>003-012>014-020>022-031>034-043>046-262200-
   NORTHWEST IOWA

CITY           SKY/WX    TMP DP  RH WIND       PRES   REMARKS
CARROLL *      CLOUDY    43  37  81 NW20      29.62S
CHEROKEE *     CLOUDY    40  35  82 NW15G24   29.64R WCI  32
DENISON *      CLOUDY    39  36  87 NW20G25   29.65F WCI  30
LE MARS *      CLOUDY    39  34  81 NW16G24   29.67R WCI  30
ORANGE CITY *  CLOUDY    39  36  87 NW17G23   29.64S WCI  30
SHELDON *      CLOUDY    37  34  87 NW20G26   29.62S WCI  27
SIOUX CITY     CLOUDY    40  32  73 N23       29.67R WCI  30
SPENCER        CLOUDY    39  34  82 NW18      29.61R WCI  30
STORM LAKE *     N/A     39  36  87 NW22      29.62S WCI  29
$$

IAZ055>058-069>071-079>083-090>094-262200-
   SOUTHWEST IOWA

CITY           SKY/WX    TMP DP  RH WIND       PRES   REMARKS
ATLANTIC *     CLOUDY    43  36  75 NW14G21   29.63F
AUDUBON *      CLOUDY    43  36  75 NW9G18    29.64R
CLARINDA *     CLOUDY    46  36  66 N17       29.65F
COUNCIL BLFS *   N/A     43  36  75 NW16G28   29.65F
CRESTON *      CLOUDY    45  37  76 NW16G23   29.60F
HARLAN  *      CLOUDY    43  36  75 NW18      29.67F
LAMONI         CLOUDY    48  39  71 NW18      29.57F
RED OAK *      CLOUDY    45  36  70 NW15G22   29.64F
SHENANDOAH *   CLOUDY    46  36  66 NW14      29.65F
$$

IAZ047>049-059>061-072>074-084-262200-
   CENTRAL IOWA

CITY           SKY/WX    TMP DP  RH WIND       PRES   REMARKS
AMES           CLOUDY    48  39  71 NW17      29.58F
ANKENY *       CLOUDY    46  39  76 NW14G22   29.59S
BOONE *        CLOUDY    45  39  81 NW17G26   29.57F
CHARITON *     CLOUDY    48  41  76 NW16      29.56F
DES MOINES     CLOUDY    48  38  68 NW16      29.58F
GRINNELL*      CLOUDY    50  41  71 NW15      29.56S
KNOXVILLE *    CLOUDY    50  39  66 NW16      29.54F
MARSHALLTOWN   CLOUDY    48  39  71 NW17      29.55S
NEWTON *       CLOUDY    48  39  71 NW15G22   29.56S
PELLA *        CLOUDY    51  42  71 NW14      29.57S
PERRY *        CLOUDY    46  38  76 NW14      29.60S
$$

IAZ004>006-015-016-023>025-035-036-262200-
   NORTH CENTRAL IOWA

CITY           SKY/WX    TMP DP  RH WIND       PRES   REMARKS
ALGONA *       CLOUDY    41  37  87 NW15G23   29.58R
CLARION *      CLOUDY    43  41  93 NW18      29.57S
ESTHERVILLE    CLOUDY    39  36  89 NW16      29.60R WCI  30
FORT DODGE *   CLOUDY    43  34  70 NW10      29.60S
MASON CITY     CLOUDY    43  37  79 NW14      29.57R
FOREST CITY *  CLOUDY    43  32  65 NW17G23   29.57R
WEBSTER CITY * CLOUDY    45  37  76 NW17G24   29.57F
IOWA FALLS *   CLOUDY    46  38  74 W16       29.57R
$$

IAZ007>011-017>019-026>030-037>042-050>054-066-262200-
   NORTHEAST IOWA

CITY           SKY/WX    TMP DP  RH WIND       PRES   REMARKS
CEDAR RAPIDS   CLOUDY    50  45  83 W14       29.52S
CHARLES CITY * CLOUDY    45  39  81 NW15      29.53R
CLINTON *      CLOUDY    51  49  92 SW13      29.54F
DECORAH *      CLOUDY    45  41  87 NW10G20   29.48F
DUBUQUE        CLOUDY    50  47  89 W12       29.50R
MONTICELLO *   CLOUDY    50  46  87 W10G16    29.53R
OELWEIN *      CLOUDY    46  43  87 W20       29.52R
WATERLOO       CLOUDY    46  38  73 W15       29.53S
$$

IAZ064-065-067-068-078-262200-
   EAST CENTRAL IOWA

CITY           SKY/WX    TMP DP  RH WIND       PRES   REMARKS
DAVENPORT      CLOUDY    51  46  83 W12       29.54F
IOWA CITY      CLOUDY    51  43  74 W6        29.56R
MT. PLEASANT * CLOUDY    49  44  83 W9        29.55F
MUSCATINE *    CLOUDY    52  45  76 W10       29.55F
QUAD CITIES    CLOUDY    52  47  83 W10       29.52F
$$

IAZ062-063-075>077-085>089-095>099-262200-
   SOUTHEAST IOWA

CITY           SKY/WX    TMP DP  RH WIND       PRES   REMARKS
BURLINGTON     CLOUDY    50  46  86 W6        29.56S
FAIRFIELD *    CLOUDY    48  43  81 NW8       29.54F HAZE
FORT MADISON * CLOUDY    52  46  82 NW7       29.57S
KEOKUK *       CLOUDY    50  46  87 W6        29.56S
OSKALOOSA *    CLOUDY    51  42  70 NW14G21   29.55F
CENTERVILLE *  CLOUDY    50  43  76 NW10      29.57F
OTTUMWA        CLOUDY    51  44  77 NW8       29.55F
WASHINGTON *   CLOUDY    50  45  81 W10       29.57S
$$

ABBREVIATIONS USED IN REMARKS
   TC - TEMPERATURES IN CELSIUS
  WCI - WIND CHILL INDEX
   HX - HEAT INDEX
  VSB - VISIBILITY
$$





USA.gov is the U.S. government's official web portal to all federal, state and local government web resources and services.